Regional Weather Roundup
Issued by NWS

Home | Current Version | Previous Version | Text Only | Print | Product List | Glossary On
Versions: 1 2 3 4 5 6 7 8 9 10 11 12 13 14 15 16 17 18 19 20 21 22 23 24 25 26 27 28 29 30 31 32 33 34 35 36 37 38 39 40 41 42 43 44 45 46 47 48 49 50
000
ASUS45 KCYS 221710
RWRWY

WYOMING REGIONAL WEATHER ROUNDUP
NATIONAL WEATHER SERVICE CHEYENNE WY
1100 AM MDT TUE AUG 22 2017

NOTE:  "FAIR" INDICATES FEW OR NO CLOUDS BELOW 12,000 FEET
WITH NO SIGNIFICANT WEATHER AND/OR OBSTRUCTIONS TO VISIBILITY.

WYZ001-221800-
YELLOWSTONE NATIONAL PARK

CITY           SKY/WX    TMP DP  RH WIND       PRES   REMARKS
LK YELLOWSTONE   N/A     56  44  64 VRB3      30.46F
W YELLOWSTONE  NOT AVBL

$$
WYZ002>013-054>058-071-098>099-221800-
NORTHERN WYOMING

CITY           SKY/WX    TMP DP  RH WIND       PRES   REMARKS
JACKSON        FAIR      63  34  33 VRB5      30.39F
CODY           FAIR      74  34  23 S3        30.27F
GREYBULL       FAIR      74  36  25 CALM      30.20F
WORLAND        FAIR      71  40  32 NW3       30.22F
SHERIDAN       FAIR      78  38  23 NE6       30.21F
BUFFALO        FAIR      78  30  17 VRB3      30.26F
GILLETTE       FAIR      77  42  28 S10       30.23F
HULETT         FAIR      75  41  29 S12G20    30.25F
NEWCASTLE      FAIR      72  37  28 SE13      30.28F

$$
WYZ014>020-022>026-101>103-221800-
CENTRAL WYOMING

CITY           SKY/WX    TMP DP  RH WIND       PRES   REMARKS
BIG PINEY      FAIR      69  28  21 E5        30.41F
PINEDALE       FAIR      70  28  21 CALM      30.41F
DUBOIS         FAIR      68  32  26 CALM      30.39S
LANDER           N/A    N/A N/A N/A MISG      30.30S
RIVERTON       FAIR      72  37  28 VRB3      30.30F
CASPER         FAIR      73  44  35 VRB5      30.29S
DOUGLAS        FAIR      71  47  42 VRB5      30.29S

$$
WYZ021-027>030-104>119-221800-
SOUTHERN WYOMING

CITY           SKY/WX    TMP DP  RH WIND       PRES   REMARKS
EVANSTON       FAIR      74  37  26 SW8       30.40F
KEMMERER         N/A     72  30  21 SW5       30.42S
FORT BRIDGER   FAIR      76  32  20 NE5       30.42F
ROCK SPRINGS   FAIR      72  34  24 VRB3      30.38F
RAWLINS        NOT AVBL
SARATOGA       FAIR      73  39  29 N8        30.39F
LARAMIE        FAIR      73  43  33 NE5       30.39S
CHEYENNE       CLOUDY    65  55  70 S16       30.37F
TORRINGTON     FAIR      74  55  51 SE14      30.26F
PINE BLUFFS    FAIR      70  50  49 S15G21    30.35S

$$



USA.gov is the U.S. government's official web portal to all federal, state and local government web resources and services.